Regional Weather Roundup
Issued by NWS

Home | Current Version | Previous Version | Graphics & Text | Print | Product List | Glossary On
Versions: 1 2 3 4 5 6 7 8 9 10 11 12 13 14 15 16 17 18 19 20 21 22 23 24 25 26 27 28 29 30 31 32 33 34 35 36 37 38 39 40 41 42 43 44 45 46 47 48 49 50
000
ASUS43 KLOT 030025
RWRIL

ILLINOIS REGIONAL WEATHER ROUNDUP
NATIONAL WEATHER SERVICE CHICAGO/ROMEOVILLE IL
700 PM CDT WED SEP 02 2015

NOTE: "FAIR" INDICATES FEW OR NO CLOUDS BELOW 12,000 FEET WITH NO
SIGNIFICANT WEATHER AND/OR OBSTRUCTIONS TO VISIBILITY.

* THESE STATIONS ARE NOT UNDER NWS QUALITY CONTROL. THEY ALSO MAY NOT
  REPORT WEATHER SUCH AS PRECIPITATION OR FOG.

ILZ001-002-007-009-015-016-024-030100-
NORTHWEST ILLINOIS

CITY           SKY/WX    TMP DP  RH WIND       PRES   REMARKS
MOLINE         CLOUDY    83  69  62 S5        29.94S HX  86
6HR MIN TEMP:  83; 6HR MAX TEMP:  87;

STERLING*      PTCLDY    82  72  69 CALM      29.93S HX  87
SAVANNA*       CLOUDY    82  69  62 S5        29.94S HX  85
$$

ILZ003-004-008-010-011-017-018-030100-
NORTH CENTRAL ILLINOIS

CITY           SKY/WX    TMP DP  RH WIND       PRES   REMARKS
ROCKFORD       MOCLDY    81  70  69 S3        29.96F HX  84
6HR MIN TEMP:  81; 6HR MAX TEMP:  89;

FREEPORT*      CLOUDY    77  69  77 S5        29.96F
ROCHELLE*      MOCLDY    80  74  83 CALM      29.96F HX  84
DE KALB*       MOCLDY    82  71  69 CALM      29.98S HX  86
PERU*          CLOUDY    84  68  58 SW6       29.97S HX  86
$$

ILZ005-006-012>014-019>023-030100-
NORTHEAST ILLINOIS

CITY           SKY/WX    TMP DP  RH WIND       PRES   REMARKS
CHICAGO-OHARE  MOCLDY    85  68  56 VRB7      29.96R HX  88
6HR MIN TEMP:  85; 6HR MAX TEMP:  90;

CHICAGO-MIDWAY MOCLDY    87  67  51 W8        29.95S HX  90
6HR MIN TEMP:  87; 6HR MAX TEMP:  92;

AURORA         MOCLDY    83  72  69 S5        29.97S HX  88
6HR MIN TEMP:  83; 6HR MAX TEMP:  90;

LANSING*       PTCLDY    83  68  58 SW7       29.97R HX  86
JOLIET*        MOCLDY    86  71  60 CALM      29.96S HX  91
WAUKEGAN       MOCLDY    81  70  69 CALM      29.94F HX  84
6HR MIN TEMP:  81; 6HR MAX TEMP:  89;

DUPAGE AIRPORT MOCLDY    82  69  64 SW5       29.96S HX  85
6HR MIN TEMP:  82; 6HR MAX TEMP:  89;

KANKAKEE*      MOCLDY    82  72  71 CALM      29.97S HX  86
WHEELING       MOCLDY    86  66  51 SW7       29.96S HX  88
6HR MIN TEMP:  86; 6HR MAX TEMP:  91;

MORRIS*        MOCLDY    82  71  67 W3        29.96S HX  87
ROMEOVILLE*    MOCLDY    82  68  61 W3        29.97S HX  85
NORTHERLY ISL    N/A     86  63  45 SW5         N/A  HX  87
$$

LMZ740>746-030100-
SOUTHERN LAKE MICHIGAN

STATION/POSITION SKY/WX   TEMP    WIND        PRES    VSBY  WAVE
                          AIR SEA DIR/SP/G                  HT/PER
                          (F)     (DEG/KT/KT) (MB)    (MI)  (FT/S)
SOUTHERN BUOY              74 72  160/  6/  6 1013.6S         0
WILMETTE HARBOR            74 62  300/  2/  4   N/A           0
HARRISON CRIB              85     240/  8/ 10   N/A
BURNHAM HARBOR             86     220/  8/ 12   N/A
CALUMET HARBOR             86     200/  9/ 13   N/A
BURNS HARBOR               86     220/  7/ 10 1014.9S
MICHIGAN CITY              83     330/  3/  4   N/A
MICHIGAN CITY 6N           79 76  100/  6/  8   N/A           0
ST. JOSEPH                 78 74  250/ 12/ 17   N/A           1
$$

ILZ025>027-034>036-040-047-049-050-058-095>099-030100-
WEST-CENTRAL ILLINOIS

CITY           SKY/WX    TMP DP  RH WIND       PRES   REMARKS
QUINCY         CLEAR     84  68  58 S7        29.97S HX  87
GALESBURG*     MOCLDY    81  69  68 CALM      29.96S HX  84
MACOMB*        CLEAR     84  67  56 S5        29.98S HX  87
JACKSONVILLE*  PTCLDY    85  68  57 S6        29.97F HX  88
PITTSFIELD*    PTCLDY    85  69  57 S6        29.99S HX  89
$$

ILZ028>032-037-038-041>044-048-051>054-059>061-030100-
CENTRAL ILLINOIS

CITY           SKY/WX    TMP DP  RH WIND       PRES   REMARKS
PONTIAC        MOCLDY    84  74  73 CALM      29.98S HX  91
BLOOMINGTON    MOCLDY    86  68  54 SW6       29.99S HX  89
DECATUR        PTCLDY    86  68  54 S7        29.99S HX  89
PEORIA         MOCLDY    87  68  52 SW3       29.96S HX  90
6HR MIN TEMP:  87; 6HR MAX TEMP:  95;

LACON*         CLOUDY    83  69  64 CALM      29.95S HX  86
LINCOLN*       PTCLDY    87  64  46 SW3       29.96S HX  88
SPRINGFIELD    PTCLDY    87  67  51 SW6       29.98S HX  90
6HR MIN TEMP:  87; 6HR MAX TEMP:  94;

TAYLORVILLE    MOCLDY    82  70  65 S3        29.99S HX  86
$$

ILZ033-039-045-046-055>057-062-063-030100-
EAST-CENTRAL ILLINOIS

CITY           SKY/WX    TMP DP  RH WIND       PRES   REMARKS
CHAMPAIGN      PTCLDY    82  69  64 S5        30.00R HX  85
RANTOUL*       MOCLDY    82  69  65 S8        29.99S HX  85
MATTOON        CLEAR     83  68  60 S3        29.99F HX  86
PARIS*         PTCLDY    81  71  71 S3        30.01S HX  85
$$

ILZ079-100>102-030100-
SOUTHWEST ILLINOIS

CITY           SKY/WX    TMP DP  RH WIND       PRES   REMARKS
ALTON          MOCLDY    84  72  65 VRB3      29.98F HX  89
BELLEVILLE     MOCLDY    84  74  72 CALM      29.97S HX  90
CAHOKIA*       MOCLDY    87  71  58 S5        29.97F HX  93
SPARTA*        PTCLDY    83  70  64 CALM      30.00S HX  87
$$

ILZ064>066-069>071-074>076-080>082-084>086-088>090-092>094-030100-
SOUTH-CENTRAL ILLINOIS

CITY           SKY/WX    TMP DP  RH WIND       PRES   REMARKS
CARBONDALE     CLEAR     82  71  69 CALM      29.99S HX  86
6HR MIN TEMP:  82; 6HR MAX TEMP:  89;

CAIRO*         CLEAR     81  74  79 CALM      29.99S HX  86
EFFINGHAM*     CLEAR     81  67  62 CALM      30.01S HX  84
MARION         PTCLDY    84  70  61 CALM      30.00F HX  88
MT. VERNON     CLEAR     79  66  65 CALM      30.01S HX  81
CENTRALIA*     PTCLDY    83  73  71 CALM      29.99S HX  89
SALEM*         PTCLDY    84  70  61 CALM      30.00S HX  88
METROPOLIS*    CLEAR     85  73  67 CALM      30.00S HX  91
$$

ILZ067-068-072-073-078-083-087-091-030100-
SOUTHEAST ILLINOIS

CITY           SKY/WX    TMP DP  RH WIND       PRES   REMARKS
LAWRENCEVILLE  CLEAR     84  70  62 SW3       29.99F HX  88
FLORA*         CLEAR     80  68  66 CALM      30.00F HX  82
FAIRFIELD*     CLEAR     81  71  72 CALM      29.99S HX  84
HARRISBURG*    CLEAR     85  70  60 S3        30.00S HX  90
ROBINSON*      PTCLDY    80  73  78 CALM      30.01S HX  84
CARMI*         CLEAR     83  71  66 CALM      29.99S HX  88
$$

ABBREVIATIONS USED IN REMARKS
   TC - TEMPERATURE IN CELSIUS
  WCI - WIND CHILL INDEX
   HX - HEAT INDEX
  VSB - VISIBILITY
$$



USA.gov is the U.S. government's official web portal to all federal, state and local government web resources and services.